Location: Newark
(41.0400°S, 62.7845°W)
Time: 00:51:06
(UTC+00:00)

Envisat - Pass Details

Date: 28 October 2021
Orbit: 764 x 766 km, 98.2° (Epoch: 28 November)

Event Time Altitude Azimuth Distance (km) Brightness Sun altitude
Rises 07:14:56 0° 52° (NE) 3,231 6.4 -18.8°
Reaches altitude 10° 07:17:41 10° 67° (ENE) 2,313 5.9 -18.4°
Maximum altitude 07:21:31 22° 115° (ESE) 1,650 5.6 -17.8°
Drops below altitude 10° 07:25:23 10° 164° (SSE) 2,336 6.3 -17.2°
Sets 07:28:10 0° 179° (S) 3,271 6.8 -16.8°
